Date String (YYYY-MM-DD hh:mm:ss) UTC,Instrument flags,absolute air pressure of the measurement (hPa),sample flow rate (lpm),inlet stack bypass flow (lpm),air temperature of the measurement (°C),ambient temperature measured by the external sensor (°C),aerosol sample conditioner tube jacket temperature (°C),OPC LED temperature (°C),internal box temperature (°C),relative humidity of the measurement (%),span deviation,mass concentration of particles derived from Lorenz-Mie calculation of OPC scattering (μg/m³),mass concentration of particles derived from Lorenz-Mie calculation of OPC scattering (μg/m³),mass concentration of particles derived from Lorenz-Mie calculation of OPC scattering (μg/m³)
DateTimeUTC,F1_M11,P_M11,Q1_M11,Q2_M11,T1_M11,T2_M11,T3_M11,T4_M11,T5_M11,U1_M11,ZSPAN_M11,X0_M11,X2_M11,X1_M11
2023-09-29 08:00:00,SystemResetWarning,0826.3,5.00,000.00,028.4,026.4,000.0,036.9,030.1,18.1,0000.0,0016.14,0006.39,0004.72
2023-09-29 08:01:00,SystemResetWarning,0826.3,4.99,000.00,028.4,026.6,000.0,036.9,030.1,18.1,0000.0,0015.85,0006.30,0004.70
2023-09-29 08:02:00,SystemResetWarning,0826.3,5.00,000.00,028.4,026.8,000.0,036.9,030.1,18.0,0000.0,0016.07,0006.23,0004.68
2023-09-29 08:03:00,SystemResetWarning,0826.3,5.00,000.00,028.4,026.9,000.0,036.9,030.2,18.0,0000.0,0016.80,0006.20,0004.69
2023-09-29 08:04:00,SystemResetWarning,0826.2,5.00,000.00,028.4,027.0,000.0,036.9,030.2,18.0,0000.0,0017.11,0006.22,0004.69
2023-09-29 08:05:00,SystemResetWarning,0826.2,4.99,000.00,028.5,027.1,000.0,036.9,030.2,18.0,0000.0,0017.24,0006.24,0004.69
2023-09-29 08:06:00,SystemResetWarning,0826.3,5.00,000.00,028.5,027.2,000.0,036.9,030.3,17.9,0000.0,0016.97,0006.23,0004.69
2023-09-29 08:07:00,SystemResetWarning,0826.3,4.99,000.00,028.5,027.2,000.0,037.0,030.3,17.7,0000.0,0017.36,0006.21,0004.70
2023-09-29 08:08:00,SystemResetWarning,0826.3,5.00,000.00,028.5,027.3,000.0,037.0,030.3,17.6,0000.0,0018.37,0006.26,0004.70
2023-09-29 08:09:00,SystemResetWarning,0826.3,5.00,000.00,028.6,027.3,000.0,037.0,030.3,17.5,0000.0,0018.14,0006.26,0004.70
2023-09-29 08:10:00,SystemResetWarning,0826.3,5.00,000.00,028.6,027.3,000.0,037.0,030.4,17.4,0000.0,0017.76,0006.23,0004.68
2023-09-29 08:11:00,SystemResetWarning,0826.3,5.00,000.00,028.6,027.4,000.0,037.0,030.4,17.3,0000.0,0017.66,0006.15,0004.66
2023-09-29 08:12:00,SystemResetWarning,0826.3,5.00,000.00,028.6,027.4,000.0,037.0,030.4,17.5,0000.0,0017.85,0006.16,0004.66
2023-09-29 08:13:00,SystemResetWarning,0826.3,5.01,000.00,028.7,027.4,000.0,037.0,030.4,17.5,0000.0,0017.87,0006.10,0004.66
2023-09-29 08:14:00,SystemResetWarning,0826.2,5.00,000.00,028.7,027.5,000.0,037.1,030.4,17.7,0000.0,0017.87,0006.06,0004.65
2023-09-29 08:15:00,SystemResetWarning,0826.3,5.00,000.00,028.7,027.5,000.0,037.1,030.4,17.8,0000.0,0018.63,0006.08,0004.63
2023-09-29 08:16:00,SystemResetWarning,0826.3,4.99,000.00,028.7,027.5,000.0,037.1,030.5,17.9,0000.0,0017.88,0006.10,0004.63
2023-09-29 08:17:00,SystemResetWarning,0826.3,5.00,000.00,028.7,027.5,000.0,037.1,030.5,18.0,0000.0,0018.07,0006.12,0004.62
2023-09-29 08:18:00,SystemResetWarning,0826.4,5.00,000.00,028.8,027.6,000.0,037.1,030.5,17.9,0000.0,0018.51,0006.16,0004.63
2023-09-29 08:19:00,SystemResetWarning,0826.4,5.00,000.00,028.8,027.6,000.0,037.1,030.5,17.7,0000.0,0018.57,0006.17,0004.62
2023-09-29 08:20:00,SystemResetWarning,0826.3,5.00,000.00,028.8,027.6,000.0,037.2,030.6,17.6,0000.0,0019.39,0006.15,0004.62
2023-09-29 08:21:00,SystemResetWarning,0826.2,5.00,000.00,028.8,027.6,000.0,037.2,030.6,17.9,0000.0,0019.43,0006.17,0004.62
2023-09-29 08:22:00,SystemResetWarning,0826.2,5.00,000.00,028.8,027.6,000.0,037.2,030.6,18.2,0000.0,0020.56,0006.26,0004.63
2023-09-29 08:23:00,SystemResetWarning,0826.3,5.00,000.00,028.8,027.3,000.0,037.2,030.6,18.3,0000.0,0021.59,0006.30,0004.65
2023-09-29 08:24:00,SystemResetWarning,0826.2,5.00,000.00,028.8,025.5,000.0,037.1,030.4,18.1,0000.0,0021.23,0006.29,0004.66
2023-09-29 08:25:00,SystemResetWarning,0826.3,5.01,000.00,028.7,024.5,000.0,037.1,030.2,18.2,0000.0,0021.01,0006.32,0004.68
2023-09-29 08:26:00,SystemResetWarning,0826.3,5.00,000.00,028.6,024.5,000.0,037.1,030.0,18.4,0000.0,0020.41,0006.29,0004.69
2023-09-29 08:27:00,SystemResetWarning,0826.3,5.00,000.00,028.5,024.9,000.0,037.1,029.9,18.6,0000.0,0020.18,0006.25,0004.70
2023-09-29 08:28:00,SystemResetWarning,0826.2,4.99,000.00,028.4,025.2,000.0,037.0,029.9,18.5,0000.0,0019.94,0006.26,0004.72
2023-09-29 08:29:00,SystemResetWarning,0826.2,5.01,000.00,028.4,025.6,000.0,037.0,029.9,18.4,0000.0,0019.16,0006.29,0004.73
2023-09-29 08:30:00,SystemResetWarning,0826.2,5.01,000.00,028.4,025.9,000.0,037.0,030.0,18.3,0000.0,0018.14,0006.28,0004.74
2023-09-29 08:31:00,SystemResetWarning,0826.4,4.99,000.00,028.4,026.2,000.0,037.0,030.0,18.3,0000.0,0017.01,0006.29,0004.74
2023-09-29 08:32:00,SystemResetWarning,0826.4,5.00,000.00,028.4,026.4,000.0,037.0,030.1,18.3,0000.0,0016.77,0006.29,0004.76
2023-09-29 08:33:00,SystemResetWarning,0826.4,5.00,000.00,028.4,026.6,000.0,037.0,030.1,18.3,0000.0,0015.88,0006.30,0004.78
2023-09-29 08:34:00,SystemResetWarning,0826.4,5.00,000.00,028.4,026.7,000.0,037.0,030.1,18.2,0000.0,0014.73,0006.30,0004.80
2023-09-29 08:35:00,SystemResetWarning,0826.4,5.00,000.00,028.4,026.8,000.0,037.0,030.2,18.2,0000.0,0015.02,0006.34,0004.81
2023-09-29 08:36:00,SystemResetWarning,0826.3,5.01,000.00,028.5,027.0,000.0,037.0,030.2,18.3,0000.0,0015.08,0006.34,0004.80
2023-09-29 08:37:00,SystemResetWarning,0826.2,5.00,000.00,028.5,027.0,000.0,037.0,030.2,18.3,0000.0,0015.49,0006.37,0004.80
2023-09-29 08:38:00,SystemResetWarning,0826.2,5.00,000.00,028.5,027.1,000.0,037.0,030.2,18.5,0000.0,0015.37,0006.37,0004.81
2023-09-29 08:39:00,SystemResetWarning,0826.3,5.01,000.00,028.5,027.2,000.0,037.0,030.3,18.4,0000.0,0015.05,0006.36,0004.82
2023-09-29 08:40:00,SystemResetWarning,0826.3,5.00,000.00,028.5,027.2,000.0,037.0,030.3,18.3,0000.0,0015.52,0006.31,0004.81
2023-09-29 08:41:00,SystemResetWarning,0826.4,4.99,000.00,028.6,027.3,000.0,037.0,030.3,18.3,0000.0,0015.56,0006.30,0004.81
2023-09-29 08:42:00,SystemResetWarning,0826.4,5.00,000.00,028.6,027.3,000.0,037.0,030.3,18.3,0000.0,0015.93,0006.30,0004.82
2023-09-29 08:43:00,SystemResetWarning,0826.4,5.00,000.00,028.6,027.4,000.0,037.0,030.4,18.3,0000.0,0016.60,0006.33,0004.82
2023-09-29 08:44:00,SystemResetWarning,0826.4,5.00,000.00,028.6,027.4,000.0,037.0,030.4,18.4,0000.0,0016.40,0006.27,0004.81
2023-09-29 08:45:00,SystemResetWarning,0826.4,5.00,000.00,028.7,027.4,000.0,037.0,030.4,18.6,0000.0,0017.30,0006.22,0004.80
2023-09-29 08:46:00,SystemResetWarning,0826.4,5.00,000.00,028.7,027.5,000.0,037.1,030.4,18.8,0000.0,0017.61,0006.24,0004.81
2023-09-29 08:47:00,SystemResetWarning,0826.4,5.00,000.00,028.7,027.5,000.0,037.1,030.4,18.9,0000.0,0017.81,0006.19,0004.82
2023-09-29 08:48:00,SystemResetWarning,0826.3,5.00,000.00,028.7,027.5,000.0,037.1,030.5,18.9,0000.0,0018.01,0006.16,0004.83
2023-09-29 08:49:00,SystemResetWarning,0826.3,5.00,000.00,028.7,027.5,000.0,037.1,030.5,19.0,0000.0,0018.37,0006.17,0004.83
2023-09-29 08:50:00,SystemResetWarning,0826.4,5.01,000.00,028.8,027.6,000.0,037.1,030.5,18.9,0000.0,0018.85,0006.22,0004.83
2023-09-29 08:51:00,SystemResetWarning,0826.4,5.00,000.00,028.8,027.6,000.0,037.1,030.5,18.7,0000.0,0019.86,0006.25,0004.83
2023-09-29 08:52:00,SystemResetWarning,0826.4,5.00,000.00,028.8,027.6,000.0,037.2,030.6,18.6,0000.0,0020.29,0006.29,0004.83
2023-09-29 08:53:00,SystemResetWarning,0826.4,4.99,000.00,028.8,027.2,000.0,037.2,030.5,18.5,0000.0,0019.81,0006.30,0004.84
2023-09-29 08:54:00,SystemResetWarning,0826.4,5.00,000.00,028.8,025.2,000.0,037.1,030.4,18.5,0000.0,0019.31,0006.27,0004.84
2023-09-29 08:55:00,SystemResetWarning,0826.4,5.02,000.00,028.7,024.5,000.0,037.0,030.2,18.6,0000.0,0019.82,0006.29,0004.85
2023-09-29 08:56:00,SystemResetWarning,0826.4,5.00,000.00,028.6,024.6,000.0,037.0,030.0,18.9,0000.0,0019.33,0006.31,0004.84
2023-09-29 08:57:00,SystemResetWarning,0826.4,4.99,000.00,028.5,024.9,000.0,037.0,029.9,18.8,0000.0,0020.76,0006.34,0004.83
2023-09-29 08:58:00,SystemResetWarning,0826.5,5.00,000.00,028.4,025.2,000.0,037.0,029.9,18.7,0000.0,0020.56,0006.39,0004.84
2023-09-29 08:59:00,SystemResetWarning,0826.6,5.00,000.00,028.4,025.6,000.0,037.0,029.9,18.6,0000.0,0020.14,0006.46,0004.83
